Time,TemperatureF,DewpointF,PressureIn,WindDirection,WindDirectionDegrees,WindSpeedMPH,WindSpeedGustMPH,Humidity,HourlyPrecipIn,Conditions,Clouds,dailyrainin,SoftwareType,DateUTC
2013-05-26 00:07:00,75.3,71.0,30.85,ESE,122,0.0,-999.0,86,-99.99,,,0.00,weatherlink.com 1.10,2013-05-26 05:07:00,
2013-05-26 00:28:00,75.1,71.0,30.85,South,188,2.0,-999.0,87,-99.99,,,0.00,weatherlink.com 1.10,2013-05-26 05:28:00,
2013-05-26 00:37:00,75.0,71.0,30.86,East,88,1.0,-999.0,87,-99.99,,,0.00,weatherlink.com 1.10,2013-05-26 05:37:00,
2013-05-26 00:52:00,75.0,71.0,30.86,East,81,0.0,-999.0,87,-99.99,,,0.00,weatherlink.com 1.10,2013-05-26 05:52:00,
2013-05-26 01:07:00,75.0,71.0,30.86,SE,146,1.0,-999.0,87,-99.99,,,0.00,weatherlink.com 1.10,2013-05-26 06:07:00,
2013-05-26 01:28:00,74.9,71.0,30.86,SSE,152,1.0,-999.0,87,-99.99,,,0.00,weatherlink.com 1.10,2013-05-26 06:28:00,
2013-05-26 01:37:00,74.7,71.0,30.86,SE,126,0.0,-999.0,88,-99.99,,,0.00,weatherlink.com 1.10,2013-05-26 06:37:00,
2013-05-26 01:52:00,74.4,71.0,30.85,SE,126,0.0,-999.0,88,-99.99,,,0.01,weatherlink.com 1.10,2013-05-26 06:52:00,
2013-05-26 02:07:00,74.0,71.0,30.84,SE,126,0.0,-999.0,89,-99.99,,,0.01,weatherlink.com 1.10,2013-05-26 07:07:00,
2013-05-26 02:28:00,73.6,70.0,30.84,SE,126,0.0,-999.0,89,-99.99,,,0.01,weatherlink.com 1.10,2013-05-26 07:28:00,
2013-05-26 02:37:00,73.3,70.0,30.83,SE,126,0.0,-999.0,90,-99.99,,,0.01,weatherlink.com 1.10,2013-05-26 07:37:00,
2013-05-26 02:52:00,73.3,70.0,30.83,SE,126,0.0,-999.0,90,-99.99,,,0.01,weatherlink.com 1.10,2013-05-26 07:52:00,
2013-05-26 03:07:00,73.2,70.0,30.84,SE,126,0.0,-999.0,90,-99.99,,,0.01,weatherlink.com 1.10,2013-05-26 08:07:00,
2013-05-26 03:28:00,73.2,71.0,30.83,SE,128,2.0,-999.0,91,-99.99,,,0.01,weatherlink.com 1.10,2013-05-26 08:28:00,
2013-05-26 03:37:00,73.3,71.0,30.83,SE,132,2.0,-999.0,91,-99.99,,,0.01,weatherlink.com 1.10,2013-05-26 08:37:00,
2013-05-26 03:52:00,73.4,71.0,30.83,SE,129,0.0,-999.0,91,-99.99,,,0.01,weatherlink.com 1.10,2013-05-26 08:52:00,
2013-05-26 04:07:00,73.3,71.0,30.83,SE,130,0.0,-999.0,91,-99.99,,,0.01,weatherlink.com 1.10,2013-05-26 09:07:00,
2013-05-26 04:28:00,73.4,71.0,30.84,SE,130,1.0,-999.0,92,-99.99,,,0.01,weatherlink.com 1.10,2013-05-26 09:28:00,
2013-05-26 04:37:00,73.4,71.0,30.84,South,176,2.0,-999.0,92,-99.99,,,0.01,weatherlink.com 1.10,2013-05-26 09:37:00,
2013-05-26 04:52:00,73.6,72.0,30.84,SSE,167,1.0,-999.0,93,-99.99,,,0.01,weatherlink.com 1.10,2013-05-26 09:52:00,
2013-05-26 05:07:00,73.7,72.0,30.84,SSE,167,3.0,-999.0,93,-99.99,,,0.01,weatherlink.com 1.10,2013-05-26 10:07:00,
2013-05-26 05:28:00,73.8,71.0,30.84,SSE,161,3.0,-999.0,92,-99.99,,,0.01,weatherlink.com 1.10,2013-05-26 10:28:00,
2013-05-26 05:37:00,73.8,71.0,30.83,SE,134,1.0,-999.0,92,-99.99,,,0.01,weatherlink.com 1.10,2013-05-26 10:37:00,
2013-05-26 05:52:00,73.8,71.0,30.83,SSE,159,2.0,-999.0,92,-99.99,,,0.01,weatherlink.com 1.10,2013-05-26 10:52:00,
2013-05-26 06:07:00,73.8,71.0,30.84,South,169,2.0,-999.0,92,-99.99,,,0.01,weatherlink.com 1.10,2013-05-26 11:07:00,
2013-05-26 06:28:00,73.8,71.0,30.84,South,170,2.0,-999.0,92,-99.99,,,0.01,weatherlink.com 1.10,2013-05-26 11:28:00,
2013-05-26 06:37:00,73.8,71.0,30.84,South,176,1.0,-999.0,92,-99.99,,,0.01,weatherlink.com 1.10,2013-05-26 11:37:00,
2013-05-26 06:52:00,73.9,72.0,30.84,SSE,162,1.0,-999.0,92,-99.99,,,0.01,weatherlink.com 1.10,2013-05-26 11:52:00,
2013-05-26 07:07:00,73.9,72.0,30.85,SSE,161,1.0,-999.0,92,-99.99,,,0.01,weatherlink.com 1.10,2013-05-26 12:07:00,
2013-05-26 07:28:00,74.1,72.0,30.85,SSE,163,0.0,-999.0,93,-99.99,,,0.01,weatherlink.com 1.10,2013-05-26 12:28:00,
2013-05-26 07:37:00,74.2,72.0,30.85,SSE,166,1.0,-999.0,93,-99.99,,,0.01,weatherlink.com 1.10,2013-05-26 12:37:00,
2013-05-26 07:52:00,74.5,72.0,30.86,SSE,150,1.0,-999.0,93,-99.99,,,0.01,weatherlink.com 1.10,2013-05-26 12:52:00,
2013-05-26 08:07:00,74.8,72.0,30.86,South,171,2.0,-999.0,92,-99.99,,,0.01,weatherlink.com 1.10,2013-05-26 13:07:00,
2013-05-26 08:28:00,75.3,73.0,30.87,South,177,3.0,-999.0,92,-99.99,,,0.01,weatherlink.com 1.10,2013-05-26 13:28:00,
2013-05-26 08:37:00,75.8,73.0,30.86,South,184,5.0,-999.0,92,-99.99,,,0.01,weatherlink.com 1.10,2013-05-26 13:37:00,
2013-05-26 08:52:00,76.2,74.0,30.86,SSW,205,4.0,-999.0,91,-99.99,,,0.01,weatherlink.com 1.10,2013-05-26 13:52:00,
2013-05-26 09:07:00,76.6,73.0,30.86,South,173,4.0,-999.0,89,-99.99,,,0.01,weatherlink.com 1.10,2013-05-26 14:07:00,
2013-05-26 09:28:00,77.2,74.0,30.86,South,175,4.0,-999.0,88,-99.99,,,0.01,weatherlink.com 1.10,2013-05-26 14:28:00,
2013-05-26 09:37:00,77.7,73.0,30.86,South,169,4.0,-999.0,86,-99.99,,,0.01,weatherlink.com 1.10,2013-05-26 14:37:00,
2013-05-26 09:52:00,78.1,73.0,30.86,SSE,153,6.0,-999.0,84,-99.99,,,0.01,weatherlink.com 1.10,2013-05-26 14:52:00,
2013-05-26 10:07:00,79.1,74.0,30.86,SSE,165,7.0,-999.0,83,-99.99,,,0.01,weatherlink.com 1.10,2013-05-26 15:07:00,
2013-05-26 10:28:00,79.0,73.0,30.87,SSW,196,7.0,-999.0,81,-99.99,,,0.01,weatherlink.com 1.10,2013-05-26 15:28:00,
2013-05-26 10:37:00,79.7,73.0,30.86,South,174,6.0,-999.0,80,-99.99,,,0.01,weatherlink.com 1.10,2013-05-26 15:37:00,
2013-05-26 10:52:00,81.3,73.0,30.87,South,182,13.0,-999.0,76,-99.99,,,0.01,weatherlink.com 1.10,2013-05-26 15:52:00,
2013-05-26 11:07:00,80.9,73.0,30.87,SSW,192,8.0,-999.0,77,-99.99,,,0.01,weatherlink.com 1.10,2013-05-26 16:07:00,
2013-05-26 11:28:00,82.5,73.0,30.86,South,189,5.0,-999.0,74,-99.99,,,0.01,weatherlink.com 1.10,2013-05-26 16:28:00,
2013-05-26 11:37:00,82.1,73.0,30.86,South,173,7.0,-999.0,74,-99.99,,,0.01,weatherlink.com 1.10,2013-05-26 16:37:00,
2013-05-26 11:52:00,82.8,74.0,30.85,SSE,151,7.0,-999.0,75,-99.99,,,0.01,weatherlink.com 1.10,2013-05-26 16:52:00,
2013-05-26 12:07:00,83.5,74.0,30.85,SSE,148,5.0,-999.0,73,-99.99,,,0.01,weatherlink.com 1.10,2013-05-26 17:07:00,
2013-05-26 12:28:00,82.7,73.0,30.85,SSW,192,6.0,-999.0,73,-99.99,,,0.01,weatherlink.com 1.10,2013-05-26 17:28:00,
2013-05-26 12:37:00,84.3,74.0,30.84,SW,217,12.0,-999.0,70,-99.99,,,0.01,weatherlink.com 1.10,2013-05-26 17:37:00,
2013-05-26 12:52:00,84.7,74.0,30.84,SSE,149,6.0,-999.0,71,-99.99,,,0.01,weatherlink.com 1.10,2013-05-26 17:52:00,
2013-05-26 13:07:00,85.7,74.0,30.83,SSE,157,9.0,-999.0,68,-99.99,,,0.01,weatherlink.com 1.10,2013-05-26 18:07:00,
2013-05-26 13:28:00,85.5,73.0,30.82,South,182,6.0,-999.0,66,-99.99,,,0.01,weatherlink.com 1.10,2013-05-26 18:28:00,
2013-05-26 13:37:00,86.0,73.0,30.81,ESE,121,4.0,-999.0,65,-99.99,,,0.01,weatherlink.com 1.10,2013-05-26 18:37:00,
2013-05-26 13:53:00,86.7,73.0,30.81,South,184,13.0,-999.0,63,-99.99,,,0.01,weatherlink.com 1.10,2013-05-26 18:53:00,
2013-05-26 14:08:00,86.8,72.0,30.80,SE,131,4.0,-999.0,62,-99.99,,,0.01,weatherlink.com 1.10,2013-05-26 19:08:00,
2013-05-26 14:29:00,87.4,73.0,30.80,SE,141,3.0,-999.0,63,-99.99,,,0.01,weatherlink.com 1.10,2013-05-26 19:29:00,
2013-05-26 14:38:00,87.6,73.0,30.80,SSE,149,9.0,-999.0,62,-99.99,,,0.01,weatherlink.com 1.10,2013-05-26 19:38:00,
2013-05-26 14:53:00,87.9,72.0,30.79,ESE,121,4.0,-999.0,60,-99.99,,,0.01,weatherlink.com 1.10,2013-05-26 19:53:00,
2013-05-26 15:08:00,87.1,73.0,30.79,East,101,2.0,-999.0,64,-99.99,,,0.01,weatherlink.com 1.10,2013-05-26 20:08:00,
2013-05-26 15:38:00,87.6,72.0,30.78,SE,128,5.0,-999.0,60,-99.99,,,0.01,weatherlink.com 1.10,2013-05-26 20:38:00,
2013-05-26 15:53:00,88.1,71.0,30.78,South,171,8.0,-999.0,58,-99.99,,,0.01,weatherlink.com 1.10,2013-05-26 20:53:00,
2013-05-26 16:08:00,87.5,71.0,30.77,SSE,161,5.0,-999.0,58,-99.99,,,0.01,weatherlink.com 1.10,2013-05-26 21:08:00,
2013-05-26 16:23:00,88.3,72.0,30.77,SE,146,7.0,-999.0,58,-99.99,,,0.01,weatherlink.com 1.10,2013-05-26 21:23:00,
2013-05-26 16:38:00,87.2,73.0,30.77,SSE,161,4.0,-999.0,62,-99.99,,,0.01,weatherlink.com 1.10,2013-05-26 21:38:00,
2013-05-26 16:53:00,87.1,71.0,30.76,ESE,119,4.0,-999.0,60,-99.99,,,0.01,weatherlink.com 1.10,2013-05-26 21:53:00,
2013-05-26 17:08:00,86.7,72.0,30.76,South,190,6.0,-999.0,61,-99.99,,,0.01,weatherlink.com 1.10,2013-05-26 22:08:00,
2013-05-26 17:23:00,86.2,71.0,30.75,SSE,160,6.0,-999.0,60,-99.99,,,0.01,weatherlink.com 1.10,2013-05-26 22:23:00,
2013-05-26 17:38:00,86.1,71.0,30.75,SE,142,3.0,-999.0,61,-99.99,,,0.01,weatherlink.com 1.10,2013-05-26 22:38:00,
2013-05-26 17:53:00,85.8,71.0,30.75,South,187,8.0,-999.0,61,-99.99,,,0.01,weatherlink.com 1.10,2013-05-26 22:53:00,
2013-05-26 18:08:00,85.3,70.0,30.74,SSE,168,5.0,-999.0,61,-99.99,,,0.01,weatherlink.com 1.10,2013-05-26 23:08:00,
2013-05-26 18:23:00,84.7,70.0,30.74,SSE,165,6.0,-999.0,62,-99.99,,,0.01,weatherlink.com 1.10,2013-05-26 23:23:00,
2013-05-26 18:38:00,84.3,70.0,30.74,SSE,149,4.0,-999.0,62,-99.99,,,0.01,weatherlink.com 1.10,2013-05-26 23:38:00,
2013-05-26 18:53:00,84.2,70.0,30.74,South,171,8.0,-999.0,63,-99.99,,,0.01,weatherlink.com 1.10,2013-05-26 23:53:00,
2013-05-26 19:08:00,83.6,70.0,30.75,SE,132,3.0,-999.0,64,-99.99,,,0.01,weatherlink.com 1.10,2013-05-27 00:08:00,
2013-05-26 19:23:00,82.7,70.0,30.74,South,174,3.0,-999.0,65,-99.99,,,0.01,weatherlink.com 1.10,2013-05-27 00:23:00,
2013-05-26 19:38:00,82.0,69.0,30.75,South,170,4.0,-999.0,65,-99.99,,,0.01,weatherlink.com 1.10,2013-05-27 00:38:00,
2013-05-26 19:53:00,81.4,69.0,30.74,SSE,163,4.0,-999.0,66,-99.99,,,0.01,weatherlink.com 1.10,2013-05-27 00:53:00,
2013-05-26 20:08:00,80.7,68.0,30.75,SSE,155,4.0,-999.0,66,-99.99,,,0.01,weatherlink.com 1.10,2013-05-27 01:08:00,
2013-05-26 20:23:00,80.0,68.0,30.75,South,170,3.0,-999.0,67,-99.99,,,0.01,weatherlink.com 1.10,2013-05-27 01:23:00,
2013-05-26 20:38:00,79.5,68.0,30.75,SSE,162,3.0,-999.0,68,-99.99,,,0.01,weatherlink.com 1.10,2013-05-27 01:38:00,
2013-05-26 20:53:00,78.9,68.0,30.76,SSE,168,4.0,-999.0,69,-99.99,,,0.01,weatherlink.com 1.10,2013-05-27 01:53:00,
2013-05-26 21:08:00,78.4,68.0,30.77,SE,146,3.0,-999.0,71,-99.99,,,0.01,weatherlink.com 1.10,2013-05-27 02:08:00,
2013-05-26 21:23:00,77.8,69.0,30.77,SSE,148,2.0,-999.0,73,-99.99,,,0.01,weatherlink.com 1.10,2013-05-27 02:23:00,
2013-05-26 21:38:00,77.5,69.0,30.77,SE,141,4.0,-999.0,74,-99.99,,,0.01,weatherlink.com 1.10,2013-05-27 02:38:00,
2013-05-26 21:53:00,77.1,69.0,30.78,SSE,148,3.0,-999.0,75,-99.99,,,0.01,weatherlink.com 1.10,2013-05-27 02:53:00,
2013-05-26 22:08:00,76.6,69.0,30.79,SSE,159,5.0,-999.0,77,-99.99,,,0.01,weatherlink.com 1.10,2013-05-27 03:08:00,
2013-05-26 22:23:00,76.1,69.0,30.79,SSE,156,4.0,-999.0,79,-99.99,,,0.01,weatherlink.com 1.10,2013-05-27 03:23:00,
2013-05-26 22:38:00,75.6,69.0,30.80,SSE,165,4.0,-999.0,81,-99.99,,,0.01,weatherlink.com 1.10,2013-05-27 03:38:00,
2013-05-26 22:53:00,75.3,70.0,30.80,SSE,166,3.0,-999.0,83,-99.99,,,0.01,weatherlink.com 1.10,2013-05-27 03:53:00,
2013-05-26 23:08:00,75.0,70.0,30.79,South,169,8.0,-999.0,84,-99.99,,,0.01,weatherlink.com 1.10,2013-05-27 04:08:00,
2013-05-26 23:23:00,74.7,70.0,30.80,SSE,159,3.0,-999.0,85,-99.99,,,0.01,weatherlink.com 1.10,2013-05-27 04:23:00,
2013-05-26 23:38:00,74.5,70.0,30.80,SE,142,3.0,-999.0,85,-99.99,,,0.01,weatherlink.com 1.10,2013-05-27 04:38:00,
2013-05-26 23:53:00,74.3,70.0,30.80,South,183,2.0,-999.0,86,-99.99,,,0.00,weatherlink.com 1.10,2013-05-27 04:53:00,